�������r�C�����j�^�v���󋵏��
Date,Time,5�C6���@���p�r�C��,����,����(m/s)
2024/03/30,00:00,3.8,��,5.7
2024/03/30,00:10,3.7,��쐼,4.7
2024/03/30,00:20,3.8,��쐼,4.3
2024/03/30,00:30,3.8,��쐼,5.8
2024/03/30,00:40,3.7,��쐼,6.6
2024/03/30,00:50,3.7,��,3.8
2024/03/30,01:00,4.0,��쐼,4.1
2024/03/30,01:10,3.8,��쐼,4.6
2024/03/30,01:20,3.6,��쐼,4.6
2024/03/30,01:30,3.7,��쐼,4.2
2024/03/30,01:40,3.8,��,4.4
2024/03/30,01:50,3.8,��쐼,5.2
2024/03/30,02:00,4.0,��쐼,4.4
2024/03/30,02:10,3.8,��쐼,5.2
2024/03/30,02:20,3.8,��쐼,6.3
2024/03/30,02:30,3.7,��쐼,6.5
2024/03/30,02:40,3.7,�쐼,5.9
2024/03/30,02:50,3.8,���쐼,5.7
2024/03/30,03:00,3.7,���쐼,5.5
2024/03/30,03:10,3.9,���쐼,5.4
2024/03/30,03:20,3.8,��,4.1
2024/03/30,03:30,3.7,���쐼,3.9
2024/03/30,03:40,3.7,�쐼,5.7
2024/03/30,03:50,3.6,���쐼,4.0
2024/03/30,04:00,3.8,��,3.5
2024/03/30,04:10,3.9,���k��,3.1
2024/03/30,04:20,3.7,��,2.8
2024/03/30,04:30,3.7,���쐼,2.6
2024/03/30,04:40,3.8,�쐼,2.3
2024/03/30,04:50,3.6,���쐼,4.3
2024/03/30,05:00,3.6,���쐼,3.2
2024/03/30,05:10,3.7,�쐼,4.0
2024/03/30,05:20,3.8,���쐼,3.5
2024/03/30,05:30,3.9,���쐼,3.5
2024/03/30,05:40,3.6,��,3.8
2024/03/30,05:50,3.6,��,4.7
2024/03/30,06:00,3.8,��,5.5
2024/03/30,06:10,3.8,��,7.4
2024/03/30,06:20,3.8,��,8.0
2024/03/30,06:30,3.6,��,8.2
2024/03/30,06:40,3.6,��,9.9
2024/03/30,06:50,3.7,��,10.2
2024/03/30,07:00,3.8,��,10.5
2024/03/30,07:10,3.7,��,8.7
2024/03/30,07:20,3.7,��,11.3
2024/03/30,07:30,3.7,���쐼,11.4
2024/03/30,07:40,3.7,��,10.9
2024/03/30,07:50,3.6,��,11.7
2024/03/30,08:00,3.7,���쐼,7.2
2024/03/30,08:10,3.9,��,8.1
2024/03/30,08:20,3.7,���쐼,6.8
2024/03/30,08:30,3.5,���쐼,8.8
2024/03/30,08:40,3.6,���쐼,9.9
2024/03/30,08:50,3.6,���쐼,9.1
2024/03/30,09:00,3.6,��,4.7
2024/03/30,09:10,3.7,��,5.0
2024/03/30,09:20,3.5,��,5.3
2024/03/30,09:30,3.7,���k��,6.6
2024/03/30,09:40,3.7,���k��,7.1
2024/03/30,09:50,3.7,���k��,8.2
2024/03/30,10:00,3.8,��,8.1
2024/03/30,10:10,3.8,���k��,8.7
2024/03/30,10:20,3.7,�k��,8.7
2024/03/30,10:30,3.7,���k��,9.0
2024/03/30,10:40,3.7,���k��,10.6
2024/03/30,10:50,3.6,���k��,9.9
2024/03/30,11:00,3.7,��,10.2
2024/03/30,11:10,3.8,��,9.5
2024/03/30,11:20,3.6,��,9.9
2024/03/30,11:30,3.7,��,10.3
2024/03/30,11:40,3.7,��,11.9
2024/03/30,11:50,3.9,��,9.3
2024/03/30,12:00,3.6,���k��,10.7
2024/03/30,12:10,3.7,��,11.8
2024/03/30,12:20,3.7,��,11.3
2024/03/30,12:30,3.6,��,13.0
2024/03/30,12:40,3.9,��,16.0
2024/03/30,12:50,3.6,��,13.9
2024/03/30,13:00,3.7,��,14.4
2024/03/30,13:10,3.6,��,11.0
2024/03/30,13:20,3.6,��,11.3
2024/03/30,13:30,3.8,��,13.1
2024/03/30,13:40,3.7,��,12.7
2024/03/30,13:50,3.8,��,11.0
2024/03/30,14:00,3.6,��,9.9
2024/03/30,14:10,3.6,���k��,13.3
2024/03/30,14:20,3.8,��,7.9
2024/03/30,14:30,3.7,���쐼,8.6
2024/03/30,14:40,3.9,��,9.6
2024/03/30,14:50,3.7,��,9.0
2024/03/30,15:00,3.7,��,7.1
2024/03/30,15:10,3.7,���k��,7.4
2024/03/30,15:20,3.7,���k��,9.1
2024/03/30,15:30,3.8,���k��,7.6
2024/03/30,15:40,3.7,���k��,8.5
2024/03/30,15:50,3.7,���k��,7.6
2024/03/30,16:00,3.8,���k��,7.2
2024/03/30,16:10,3.7,�k��,7.3
2024/03/30,16:20,3.6,�k��,7.4
2024/03/30,16:30,3.7,�k��,5.0
2024/03/30,16:40,3.6,���k��,5.6
2024/03/30,16:50,3.8,���k��,5.1
2024/03/30,17:00,3.7,���k��,3.1
2024/03/30,17:10,3.7,�k�k��,2.3
2024/03/30,17:20,3.8,��,1.1
2024/03/30,17:30,3.6,�쓌,2.3
2024/03/30,17:40,3.6,��쓌,0.8
2024/03/30,17:50,3.6,���k��,1.2
2024/03/30,18:00,3.8,���k��,6.0
2024/03/30,18:10,3.8,���k��,5.8
2024/03/30,18:20,3.6,���k��,3.2
2024/03/30,18:30,3.8,�k��,2.6
2024/03/30,18:40,3.7,�k�k��,4.3
2024/03/30,18:50,3.7,�k�k��,3.9
2024/03/30,19:00,3.8,�k��,4.0
2024/03/30,19:10,3.8,���k��,3.5
2024/03/30,19:20,3.7,���k��,2.3
2024/03/30,19:30,3.7,�k�k��,1.5
2024/03/30,19:40,3.8,���k��,1.9
2024/03/30,19:50,3.5,��,2.2
2024/03/30,20:00,3.7,���k��,1.4
2024/03/30,20:10,3.7,-,CALM
2024/03/30,20:20,3.6,�쐼,1.1
2024/03/30,20:30,3.6,��쐼,2.2
2024/03/30,20:40,3.7,��쐼,2.0
2024/03/30,20:50,3.7,��쐼,1.9
2024/03/30,21:00,3.7,��,2.0
2024/03/30,21:10,3.6,��,2.2
2024/03/30,21:20,3.6,�쓌,1.7
2024/03/30,21:30,3.7,��,2.5
2024/03/30,21:40,3.8,��쓌,3.1
2024/03/30,21:50,3.7,��쐼,2.3
2024/03/30,22:00,3.6,��,3.4
2024/03/30,22:10,3.8,��,4.1
2024/03/30,22:20,3.7,��쓌,4.5
2024/03/30,22:30,3.7,�쓌,3.8
2024/03/30,22:40,3.6,�쓌,4.1
2024/03/30,22:50,3.7,�쓌,2.8
2024/03/30,23:00,3.7,�쓌,1.9
2024/03/30,23:10,3.7,�쓌,2.9
2024/03/30,23:20,3.8,��쓌,2.6
2024/03/30,23:30,3.6,��쓌,2.8
2024/03/30,23:40,3.6,��,2.8
2024/03/30,23:50,3.7,��,3.6
